Tracking 18850 objects as of 22-Nov-2017
HD Live streaming from Space Station
objects crossing your sky now

ARIANE 42L+3 R/B

Track ARIANE 42L+3 R/B now!


NORAD ID: 23687
Int'l Code: 1995-055B
Perigee: 511.7 km
Apogee: 36,432.2 km
Inclination: 5.3 °
Period: 649.5 minutes
Semi major axis: 24842 km
RCS: 19.8634 m2 (large)
Launch date: October 19, 1995
Source: France (FR)
Launch site: FRENCH GUIANA (FRGUI)

Note: This is a ROCKET BODY
aabbcc
Your satellite tracking list
Your tracking list is empty




NASA's NSSDC Master Catalog

Two Line Element Set (TLE):
1 23687U 95055B   17325.52512807 -.00000140  00000-0 -41508-3 0  9996
2 23687   5.3076  10.5800 7229525 142.3795 300.9309  2.21716863178541
Source of the keplerian elements: AFSPC